TimeEDT,TemperatureF,Dew PointF,Humidity,Sea Level PressureIn,VisibilityMPH,Wind Direction,Wind SpeedMPH,Gust SpeedMPH,PrecipitationIn,Events,Conditions,WindDirDegrees,DateUTC
12:15 AM,65.3,62.8,92,30.17,7.0,Calm,Calm,-,N/A,,Clear,0,2013-06-22 04:15:00
12:35 AM,65.3,63.1,93,30.17,7.0,Calm,Calm,-,N/A,,Clear,0,2013-06-22 04:35:00
12:55 AM,65.3,63.0,92,30.17,7.0,Calm,Calm,-,N/A,,Clear,0,2013-06-22 04:55:00
1:15 AM,64.8,62.6,93,30.18,7.0,Calm,Calm,-,N/A,,Clear,0,2013-06-22 05:15:00
1:35 AM,64.6,62.6,93,30.17,7.0,Calm,Calm,-,N/A,,Clear,0,2013-06-22 05:35:00
1:55 AM,64.0,61.9,93,30.17,7.0,Calm,Calm,-,N/A,,Clear,0,2013-06-22 05:55:00
2:15 AM,64.2,62.1,93,30.16,7.0,Calm,Calm,-,N/A,,Clear,0,2013-06-22 06:15:00
2:35 AM,63.9,61.9,93,30.16,7.0,Calm,Calm,-,N/A,,Clear,0,2013-06-22 06:35:00
2:55 AM,63.9,61.7,93,30.15,7.0,Calm,Calm,-,N/A,,Clear,0,2013-06-22 06:55:00
3:15 AM,63.9,61.9,93,30.15,7.0,SSE,3.5,-,N/A,,Clear,160,2013-06-22 07:15:00
3:35 AM,62.8,61.0,94,30.15,7.0,West,3.5,-,N/A,,Clear,270,2013-06-22 07:35:00
3:55 AM,62.2,60.4,94,30.15,5.0,West,3.5,-,N/A,,Clear,260,2013-06-22 07:55:00
4:15 AM,63.0,61.2,94,30.15,7.0,Calm,Calm,-,N/A,,Clear,0,2013-06-22 08:15:00
4:35 AM,62.6,60.4,93,30.16,7.0,Calm,Calm,-,N/A,,Clear,0,2013-06-22 08:35:00
4:55 AM,62.6,60.8,94,30.15,7.0,East,3.5,-,N/A,,Clear,100,2013-06-22 08:55:00
5:15 AM,61.9,59.9,93,30.14,7.0,Calm,Calm,-,N/A,,Clear,0,2013-06-22 09:15:00
5:35 AM,61.7,59.9,94,30.15,7.0,Calm,Calm,-,N/A,,Clear,0,2013-06-22 09:35:00
5:55 AM,61.3,59.5,94,30.16,5.0,West,3.5,-,N/A,,Clear,260,2013-06-22 09:55:00
6:15 AM,61.3,59.7,94,30.17,7.0,Calm,Calm,-,N/A,,Clear,0,2013-06-22 10:15:00
6:35 AM,61.9,60.1,94,30.17,7.0,Calm,Calm,-,N/A,,Clear,0,2013-06-22 10:35:00
6:55 AM,63.0,61.0,93,30.17,7.0,Calm,Calm,-,N/A,,Clear,0,2013-06-22 10:55:00
7:15 AM,64.9,62.4,92,30.18,7.0,Calm,Calm,-,N/A,,Clear,0,2013-06-22 11:15:00
7:35 AM,66.2,62.8,89,30.19,10.0,WNW,4.6,-,N/A,,Clear,290,2013-06-22 11:35:00
7:55 AM,66.6,63.1,89,30.20,10.0,Calm,Calm,-,N/A,,Mostly Cloudy,0,2013-06-22 11:55:00
8:15 AM,67.8,63.9,87,30.21,10.0,Calm,Calm,-,N/A,,Scattered Clouds,0,2013-06-22 12:15:00
8:35 AM,70.3,64.8,82,30.21,10.0,Calm,Calm,-,N/A,,Scattered Clouds,0,2013-06-22 12:35:00
8:55 AM,72.9,66.2,80,30.21,10.0,SSW,3.5,-,N/A,,Mostly Cloudy,200,2013-06-22 12:55:00
9:15 AM,72.0,66.2,82,30.22,10.0,Calm,Calm,-,N/A,,Overcast,0,2013-06-22 13:15:00
9:35 AM,72.7,66.6,81,30.22,10.0,WSW,3.5,-,N/A,,Mostly Cloudy,240,2013-06-22 13:35:00
9:55 AM,75.4,67.6,77,30.22,10.0,Calm,Calm,-,N/A,,Mostly Cloudy,0,2013-06-22 13:55:00
10:35 AM,79.7,68.4,68,30.21,10.0,South,3.5,-,N/A,,Scattered Clouds,180,2013-06-22 14:35:00
10:55 AM,80.6,68.4,66,30.21,10.0,South,3.5,-,N/A,,Scattered Clouds,190,2013-06-22 14:55:00
11:15 AM,81.5,68.2,64,30.20,10.0,South,3.5,-,N/A,,Clear,180,2013-06-22 15:15:00
11:35 AM,82.6,67.8,61,30.21,10.0,SSW,6.9,-,N/A,,Clear,200,2013-06-22 15:35:00
11:55 AM,82.0,67.3,61,30.21,10.0,WSW,3.5,-,N/A,,Scattered Clouds,240,2013-06-22 15:55:00
12:15 PM,83.8,65.8,55,30.20,10.0,WSW,8.1,-,N/A,,Clear,240,2013-06-22 16:15:00
12:35 PM,83.5,65.8,55,30.19,10.0,SSW,3.5,-,N/A,,Scattered Clouds,210,2013-06-22 16:35:00
12:55 PM,84.6,66.2,54,30.19,10.0,South,5.8,-,N/A,,Scattered Clouds,180,2013-06-22 16:55:00
1:15 PM,85.1,66.6,54,30.19,10.0,South,6.9,-,N/A,,Scattered Clouds,180,2013-06-22 17:15:00
1:35 PM,85.8,66.4,52,30.18,10.0,South,5.8,-,N/A,,Scattered Clouds,190,2013-06-22 17:35:00
1:55 PM,86.0,64.6,49,30.18,10.0,South,5.8,-,N/A,,Clear,170,2013-06-22 17:55:00
2:15 PM,84.6,64.2,50,30.18,10.0,Calm,Calm,-,N/A,,Scattered Clouds,0,2013-06-22 18:15:00
2:35 PM,86.2,63.3,46,30.17,10.0,SSW,6.9,-,N/A,,Scattered Clouds,200,2013-06-22 18:35:00
2:55 PM,87.1,64.2,46,30.17,10.0,SSW,5.8,-,N/A,,Scattered Clouds,200,2013-06-22 18:55:00
3:15 PM,86.7,64.4,47,30.16,10.0,SW,5.8,-,N/A,,Scattered Clouds,220,2013-06-22 19:15:00
3:35 PM,86.2,65.1,49,30.15,10.0,Calm,Calm,-,N/A,,Scattered Clouds,0,2013-06-22 19:35:00
3:55 PM,86.4,64.0,47,30.14,10.0,South,5.8,-,N/A,,Scattered Clouds,180,2013-06-22 19:55:00
4:15 PM,86.4,66.4,51,30.14,10.0,South,6.9,-,N/A,,Scattered Clouds,180,2013-06-22 20:15:00
4:35 PM,86.4,65.3,49,30.13,10.0,South,6.9,-,N/A,,Scattered Clouds,190,2013-06-22 20:35:00
4:55 PM,87.3,65.1,48,30.12,10.0,SSE,6.9,-,N/A,,Scattered Clouds,160,2013-06-22 20:55:00
5:15 PM,86.9,65.5,49,30.11,10.0,SSE,6.9,-,N/A,,Scattered Clouds,150,2013-06-22 21:15:00
5:35 PM,86.4,63.5,46,30.09,10.0,SSW,6.9,-,N/A,,Scattered Clouds,200,2013-06-22 21:35:00
5:55 PM,86.5,65.8,50,30.09,10.0,South,6.9,-,N/A,,Clear,190,2013-06-22 21:55:00
6:15 PM,85.6,65.7,51,30.09,10.0,South,6.9,-,N/A,,Clear,190,2013-06-22 22:15:00
6:35 PM,86.0,66.0,51,30.08,10.0,South,5.8,-,N/A,,Clear,180,2013-06-22 22:35:00
6:55 PM,84.6,66.4,54,30.09,10.0,SSW,3.5,-,N/A,,Clear,210,2013-06-22 22:55:00
7:15 PM,84.4,66.4,55,30.09,10.0,Calm,Calm,-,N/A,,Clear,0,2013-06-22 23:15:00
7:35 PM,83.1,67.1,58,30.09,10.0,Calm,Calm,-,N/A,,Clear,0,2013-06-22 23:35:00
7:55 PM,81.9,67.6,62,30.09,10.0,Calm,Calm,-,N/A,,Clear,0,2013-06-22 23:55:00
8:15 PM,80.2,69.1,69,30.10,10.0,Calm,Calm,-,N/A,,Clear,0,2013-06-23 00:15:00
8:35 PM,77.9,70.2,77,30.11,10.0,Calm,Calm,-,N/A,,Clear,0,2013-06-23 00:35:00
8:55 PM,76.3,68.7,77,30.11,10.0,Calm,Calm,-,N/A,,Clear,0,2013-06-23 00:55:00
9:15 PM,75.2,69.1,81,30.11,10.0,Calm,Calm,-,N/A,,Clear,0,2013-06-23 01:15:00
9:35 PM,74.3,68.5,82,30.12,10.0,Calm,Calm,-,N/A,,Clear,0,2013-06-23 01:35:00
9:55 PM,73.6,68.0,83,30.12,10.0,Calm,Calm,-,N/A,,Clear,0,2013-06-23 01:55:00
10:15 PM,72.0,68.0,87,30.12,10.0,Calm,Calm,-,N/A,,Clear,0,2013-06-23 02:15:00
10:35 PM,72.5,68.0,86,30.13,10.0,Calm,Calm,-,N/A,,Clear,0,2013-06-23 02:35:00
10:55 PM,71.8,68.4,89,30.12,10.0,Calm,Calm,-,N/A,,Clear,0,2013-06-23 02:55:00
11:15 PM,70.9,68.0,91,30.13,10.0,Calm,Calm,-,N/A,,Clear,0,2013-06-23 03:15:00
11:35 PM,70.7,67.6,90,30.13,10.0,Calm,Calm,-,N/A,,Clear,0,2013-06-23 03:35:00
11:55 PM,70.0,67.6,92,30.13,7.0,Calm,Calm,-,N/A,,Clear,0,2013-06-23 03:55:00